TimeMDT,TemperatureF,Dew PointF,Humidity,Sea Level PressureIn,VisibilityMPH,Wind Direction,Wind SpeedMPH,Gust SpeedMPH,PrecipitationIn,Events,Conditions,WindDirDegrees,DateUTC
12:53 AM,55.9,37.0,49,29.82,10.0,ESE,15.0,-,N/A,,Clear,120,2014-05-03 06:53:00
1:53 AM,50.0,35.1,57,29.84,10.0,South,9.2,-,N/A,,Clear,180,2014-05-03 07:53:00
2:53 AM,46.9,36.0,66,29.87,10.0,NNE,9.2,-,N/A,,Clear,30,2014-05-03 08:53:00
3:53 AM,43.0,39.0,86,29.88,10.0,ENE,6.9,-,N/A,,Clear,70,2014-05-03 09:53:00
4:53 AM,41.0,37.0,86,29.88,10.0,ESE,6.9,-,N/A,,Clear,110,2014-05-03 10:53:00
5:53 AM,39.0,36.0,89,29.89,10.0,SE,6.9,-,N/A,,Clear,130,2014-05-03 11:53:00
6:53 AM,45.0,39.0,80,29.90,10.0,SE,6.9,-,N/A,,Clear,140,2014-05-03 12:53:00
7:53 AM,53.1,39.9,61,29.89,10.0,SE,15.0,-,N/A,,Clear,140,2014-05-03 13:53:00
8:53 AM,57.9,39.9,51,29.89,10.0,SSE,16.1,-,N/A,,Clear,150,2014-05-03 14:53:00
9:53 AM,63.0,41.0,45,29.88,10.0,South,13.8,-,N/A,,Clear,170,2014-05-03 15:53:00
10:53 AM,68.0,39.0,35,29.87,10.0,SSW,10.4,-,N/A,,Clear,200,2014-05-03 16:53:00
11:53 AM,75.0,39.0,27,29.85,10.0,West,11.5,-,N/A,,Clear,270,2014-05-03 17:53:00
12:53 PM,79.0,33.1,19,29.81,10.0,NNW,9.2,-,N/A,,Clear,330,2014-05-03 18:53:00
1:53 PM,82.0,30.9,16,29.81,10.0,West,10.4,21.9,N/A,,Clear,280,2014-05-03 19:53:00
2:53 PM,82.9,26.1,13,29.79,10.0,NW,12.7,25.3,N/A,,Clear,310,2014-05-03 20:53:00
3:53 PM,82.9,24.1,12,29.79,10.0,Variable,6.9,-,N/A,,Clear,0,2014-05-03 21:53:00
4:53 PM,84.0,24.1,11,29.77,10.0,WSW,4.6,-,N/A,,Clear,240,2014-05-03 22:53:00
5:53 PM,82.9,27.0,13,29.77,10.0,South,8.1,-,N/A,,Clear,170,2014-05-03 23:53:00
6:53 PM,80.1,35.1,20,29.76,10.0,South,9.2,-,N/A,,Clear,180,2014-05-04 00:53:00
7:53 PM,66.0,37.0,34,29.77,10.0,South,11.5,-,N/A,,Clear,180,2014-05-04 01:53:00
8:53 PM,63.0,37.0,38,29.78,10.0,South,12.7,-,N/A,,Clear,170,2014-05-04 02:53:00
9:53 PM,61.0,36.0,39,29.79,10.0,South,12.7,-,N/A,,Clear,170,2014-05-04 03:53:00
10:53 PM,57.0,37.0,47,29.78,10.0,South,13.8,-,N/A,,Clear,180,2014-05-04 04:53:00
11:53 PM,60.1,36.0,41,29.75,10.0,South,15.0,-,N/A,,Clear,190,2014-05-04 05:53:00